FALCON 9 R/B

Last updated on Oct. 29, 2020, 12:02 a.m. UTC

1 46669U 20070BS  20302.61911954  .01917843  12047-4  50688-3 0  9994
2 46669  52.9854 328.5015 0008928  10.3460 350.1362 16.27598868  4353

Satellite is not in orbit.